Wetterdaten: Woche 12.03.12 - 18.03.12 (KW11)
Datum Zeit Temp. Innen Temp. Aussen UV X Diff Temp. Feuchte Inne Feuchte Auss Sonnenschein Luftdruck Regen ab 0,1 Wind Sonnenschein T Regendauer Windben
12.03.2012 00:00 15,8 C 7,1 C 0,0 UV-I 0,0 C 57 % 90 % 0 % 1033,8 hPa 0,0 l/m 0,6 km/h (0 Bft) 0,00 h 0,00 h 2,0 km/h (1 Bft)
12.03.2012 01:00 15,7 C 6,6 C 0,0 UV-I 0,0 C 57 % 92 % 0 % 1033,5 hPa 0,0 l/m 0,2 km/h (0 Bft) 0,00 h 0,00 h 0,6 km/h (0 Bft)
12.03.2012 02:00 15,6 C 6,0 C 0,0 UV-I 0,0 C 57 % 92 % 0 % 1033,3 hPa 0,0 l/m 0,0 km/h (0 Bft) 0,00 h 0,00 h 0,0 km/h (0 Bft)
12.03.2012 03:00 15,5 C 5,3 C 0,0 UV-I 0,0 C 56 % 93 % 0 % 1033,4 hPa 0,0 l/m 0,0 km/h (0 Bft) 0,00 h 0,00 h 0,2 km/h (0 Bft)
12.03.2012 04:00 15,4 C 5,0 C 0,0 UV-I 0,0 C 56 % 94 % 0 % 1033,1 hPa 0,0 l/m 0,3 km/h (0 Bft) 0,00 h 0,03 h 0,4 km/h (0 Bft)
12.03.2012 05:00 15,2 C 5,2 C 0,0 UV-I 0,0 C 56 % 95 % 0 % 1033,1 hPa 0,0 l/m 0,9 km/h (0 Bft) 0,00 h 0,00 h 2,1 km/h (1 Bft)
12.03.2012 06:00 15,3 C 5,6 C 0,0 UV-I 0,0 C 57 % 96 % 0 % 1032,9 hPa 0,0 l/m 1,8 km/h (1 Bft) 0,00 h 0,00 h 3,0 km/h (1 Bft)
12.03.2012 07:00 15,3 C 5,6 C 0,0 UV-I 0,0 C 57 % 96 % 0 % 1033,3 hPa 0,0 l/m 1,9 km/h (1 Bft) 0,00 h 0,00 h 3,2 km/h (1 Bft)
12.03.2012 08:00 15,3 C 5,6 C 0,0 UV-I 0,0 C 57 % 97 % 1 % 1033,7 hPa 0,0 l/m 1,9 km/h (1 Bft) 0,00 h 0,00 h 3,8 km/h (1 Bft)
12.03.2012 09:00 15,4 C 6,0 C 0,0 UV-I 0,3 C 57 % 97 % 8 % 1033,5 hPa 0,0 l/m 2,5 km/h (1 Bft) 0,00 h 0,00 h 4,4 km/h (1 Bft)
12.03.2012 10:00 15,4 C 6,4 C 0,0 UV-I 0,8 C 57 % 97 % 22 % 1033,8 hPa 0,0 l/m 3,4 km/h (1 Bft) 0,00 h 0,00 h 5,8 km/h (2 Bft)
12.03.2012 11:00 15,6 C 6,9 C 0,0 UV-I 1,1 C 57 % 97 % 32 % 1034,0 hPa 0,0 l/m 4,3 km/h (1 Bft) 0,00 h 0,00 h 6,8 km/h (2 Bft)
12.03.2012 12:00 15,7 C 7,7 C 0,1 UV-I 1,3 C 57 % 97 % 38 % 1033,9 hPa 0,0 l/m 7,4 km/h (2 Bft) 0,00 h 0,00 h 8,9 km/h (2 Bft)
12.03.2012 13:00 15,9 C 8,4 C 0,1 UV-I 1,6 C 57 % 96 % 44 % 1034,2 hPa 0,0 l/m 3,7 km/h (1 Bft) 0,00 h 0,00 h 4,9 km/h (1 Bft)
12.03.2012 14:00 16,0 C 9,3 C 0,3 UV-I 2,0 C 57 % 94 % 58 % 1034,1 hPa 0,0 l/m 5,4 km/h (1 Bft) 0,00 h 0,00 h 6,7 km/h (2 Bft)
12.03.2012 15:00 16,3 C 9,8 C 0,3 UV-I 2,3 C 57 % 90 % 65 % 1034,2 hPa 0,0 l/m 6,6 km/h (2 Bft) 0,00 h 0,00 h 8,5 km/h (2 Bft)
12.03.2012 16:00 16,5 C 9,7 C 0,0 UV-I 0,8 C 57 % 89 % 22 % 1034,3 hPa 0,0 l/m 4,9 km/h (1 Bft) 0,00 h 0,00 h 5,4 km/h (1 Bft)
12.03.2012 17:00 16,3 C 9,6 C 0,0 UV-I 0,1 C 57 % 89 % 2 % 1033,8 hPa 0,0 l/m 0,2 km/h (0 Bft) 0,00 h 0,00 h 0,5 km/h (0 Bft)
12.03.2012 18:00 16,0 C 9,4 C 0,0 UV-I 0,0 C 57 % 89 % 0 % 1033,7 hPa 0,0 l/m 0,8 km/h (0 Bft) 0,00 h 0,00 h 1,8 km/h (1 Bft)
12.03.2012 19:00 16,0 C 9,2 C 0,0 UV-I 0,0 C 58 % 90 % 0 % 1033,6 hPa 0,0 l/m 1,3 km/h (1 Bft) 0,00 h 0,00 h 2,2 km/h (1 Bft)
12.03.2012 20:00 15,9 C 9,1 C 0,0 UV-I 0,0 C 58 % 90 % 0 % 1033,8 hPa 0,0 l/m 0,1 km/h (0 Bft) 0,00 h 0,00 h 0,3 km/h (0 Bft)
12.03.2012 21:00 15,9 C 9,0 C 0,0 UV-I 0,0 C 58 % 91 % 0 % 1033,9 hPa 0,0 l/m 0,0 km/h (0 Bft) 0,00 h 0,00 h 0,0 km/h (0 Bft)
12.03.2012 22:00 15,9 C 8,9 C 0,0 UV-I 0,0 C 58 % 91 % 0 % 1034,0 hPa 0,0 l/m 0,0 km/h (0 Bft) 0,00 h 0,00 h 0,0 km/h (0 Bft)
12.03.2012 23:00 15,9 C 8,7 C 0,0 UV-I 0,0 C 58 % 92 % 0 % 1034,2 hPa 0,0 l/m 0,0 km/h (0 Bft) 0,00 h 0,00 h 0,0 km/h (0 Bft)
13.03.2012 00:00 15,9 C 8,7 C 0,0 UV-I 0,0 C 58 % 93 % 0 % 1034,1 hPa 0,0 l/m 3,3 km/h (1 Bft) 0,00 h 0,00 h 5,3 km/h (1 Bft)
13.03.2012 01:00 15,9 C 8,6 C 0,0 UV-I 0,0 C 59 % 93 % 0 % 1034,2 hPa 0,0 l/m 6,4 km/h (2 Bft) 0,00 h 0,00 h 7,8 km/h (2 Bft)
13.03.2012 02:00 15,8 C 8,1 C 0,0 UV-I 0,0 C 59 % 93 % 0 % 1034,2 hPa 0,0 l/m 5,3 km/h (1 Bft) 0,00 h 0,00 h 6,1 km/h (2 Bft)
13.03.2012 03:00 15,8 C 7,9 C 0,0 UV-I 0,0 C 59 % 93 % 0 % 1034,2 hPa 0,0 l/m 4,1 km/h (1 Bft) 0,00 h 0,00 h 4,5 km/h (1 Bft)
13.03.2012 04:00 15,8 C 7,7 C 0,0 UV-I 0,0 C 59 % 93 % 0 % 1034,0 hPa 0,0 l/m 2,5 km/h (1 Bft) 0,00 h 0,00 h 3,8 km/h (1 Bft)
13.03.2012 05:00 15,8 C 7,6 C 0,0 UV-I 0,0 C 59 % 92 % 0 % 1033,9 hPa 0,0 l/m 3,6 km/h (1 Bft) 0,00 h 0,00 h 4,9 km/h (1 Bft)
13.03.2012 06:00 15,7 C 7,6 C 0,0 UV-I 0,0 C 58 % 90 % 0 % 1034,1 hPa 0,0 l/m 3,8 km/h (1 Bft) 0,00 h 0,00 h 4,4 km/h (1 Bft)
13.03.2012 07:00 15,6 C 7,6 C 0,0 UV-I 0,0 C 58 % 90 % 0 % 1034,1 hPa 0,0 l/m 0,7 km/h (0 Bft) 0,00 h 0,00 h 0,5 km/h (0 Bft)
13.03.2012 08:00 15,6 C 7,7 C 0,0 UV-I 0,0 C 57 % 89 % 0 % 1034,5 hPa 0,0 l/m 2,6 km/h (1 Bft) 0,00 h 0,00 h 4,3 km/h (1 Bft)
13.03.2012 09:00 15,8 C 8,0 C 0,0 UV-I 0,1 C 57 % 86 % 3 % 1034,8 hPa 0,0 l/m 4,1 km/h (1 Bft) 0,00 h 0,00 h 6,7 km/h (2 Bft)
13.03.2012 10:00 15,8 C 8,3 C 0,0 UV-I 0,4 C 57 % 85 % 12 % 1035,1 hPa 0,0 l/m 4,7 km/h (1 Bft) 0,00 h 0,00 h 5,9 km/h (2 Bft)
13.03.2012 11:00 15,9 C 8,5 C 0,0 UV-I 0,6 C 57 % 83 % 17 % 1035,2 hPa 0,0 l/m 4,7 km/h (1 Bft) 0,00 h 0,00 h 6,0 km/h (2 Bft)
13.03.2012 12:00 16,0 C 8,8 C 0,0 UV-I 0,7 C 57 % 82 % 20 % 1035,4 hPa 0,0 l/m 5,0 km/h (1 Bft) 0,00 h 0,00 h 7,2 km/h (2 Bft)
13.03.2012 13:00 15,9 C 8,9 C 0,0 UV-I 0,6 C 56 % 81 % 18 % 1035,2 hPa 0,0 l/m 6,9 km/h (2 Bft) 0,00 h 0,00 h 8,4 km/h (2 Bft)
13.03.2012 14:00 16,1 C 8,9 C 0,0 UV-I 0,6 C 56 % 81 % 17 % 1035,0 hPa 0,0 l/m 6,6 km/h (2 Bft) 0,00 h 0,00 h 7,8 km/h (2 Bft)
13.03.2012 15:00 16,1 C 8,9 C 0,0 UV-I 0,4 C 56 % 82 % 11 % 1034,8 hPa 0,0 l/m 6,0 km/h (2 Bft) 0,00 h 0,00 h 7,5 km/h (2 Bft)
13.03.2012 16:00 16,0 C 8,9 C 0,0 UV-I 0,2 C 56 % 82 % 4 % 1034,2 hPa 0,0 l/m 4,3 km/h (1 Bft) 0,00 h 0,00 h 5,2 km/h (1 Bft)
13.03.2012 17:00 15,9 C 8,9 C 0,0 UV-I 0,0 C 56 % 82 % 0 % 1033,9 hPa 0,0 l/m 1,9 km/h (1 Bft) 0,00 h 0,00 h 2,9 km/h (1 Bft)
13.03.2012 18:00 15,9 C 8,7 C 0,0 UV-I 0,0 C 56 % 83 % 0 % 1033,8 hPa 0,0 l/m 2,9 km/h (1 Bft) 0,00 h 0,00 h 3,7 km/h (1 Bft)
13.03.2012 19:00 15,9 C 8,6 C 0,0 UV-I 0,0 C 56 % 83 % 0 % 1034,0 hPa 0,0 l/m 2,8 km/h (1 Bft) 0,00 h 0,00 h 3,8 km/h (1 Bft)
13.03.2012 20:00 15,8 C 8,5 C 0,0 UV-I 0,0 C 56 % 82 % 0 % 1034,1 hPa 0,0 l/m 4,5 km/h (1 Bft) 0,00 h 0,00 h 5,7 km/h (1 Bft)
13.03.2012 21:00 15,8 C 8,4 C 0,0 UV-I 0,0 C 55 % 83 % 0 % 1033,8 hPa 0,0 l/m 2,4 km/h (1 Bft) 0,00 h 0,00 h 3,1 km/h (1 Bft)
13.03.2012 22:00 15,8 C 8,3 C 0,0 UV-I 0,0 C 55 % 85 % 0 % 1033,7 hPa 0,0 l/m 3,6 km/h (1 Bft) 0,00 h 0,00 h 4,9 km/h (1 Bft)
13.03.2012 23:00 15,7 C 8,1 C 0,0 UV-I 0,0 C 56 % 86 % 0 % 1033,5 hPa 0,0 l/m 1,4 km/h (1 Bft) 0,00 h 0,00 h 1,5 km/h (1 Bft)
14.03.2012 00:00 15,6 C 8,0 C 0,0 UV-I 0,0 C 56 % 85 % 0 % 1033,6 hPa 0,0 l/m 1,3 km/h (1 Bft) 0,00 h 0,00 h 2,2 km/h (1 Bft)
14.03.2012 01:00 15,6 C 7,8 C 0,0 UV-I 0,0 C 55 % 85 % 0 % 1033,3 hPa 0,0 l/m 0,0 km/h (0 Bft) 0,00 h 0,00 h 0,0 km/h (0 Bft)
14.03.2012 02:00 15,6 C 7,6 C 0,0 UV-I 0,0 C 55 % 86 % 0 % 1033,0 hPa 0,0 l/m 0,1 km/h (0 Bft) 0,00 h 0,00 h 0,2 km/h (0 Bft)
14.03.2012 03:00 15,7 C 7,4 C 0,0 UV-I 0,0 C 55 % 87 % 0 % 1032,7 hPa 0,0 l/m 0,0 km/h (0 Bft) 0,00 h 0,00 h 0,0 km/h (0 Bft)
14.03.2012 04:00 15,7 C 7,2 C 0,0 UV-I 0,0 C 55 % 87 % 0 % 1032,5 hPa 0,0 l/m 0,0 km/h (0 Bft) 0,00 h 0,00 h 0,0 km/h (0 Bft)
14.03.2012 05:00 15,6 C 7,3 C 0,0 UV-I 0,0 C 55 % 87 % 0 % 1032,3 hPa 0,0 l/m 0,0 km/h (0 Bft) 0,00 h 0,00 h 0,1 km/h (0 Bft)
14.03.2012 06:00 15,6 C 7,2 C 0,0 UV-I 0,0 C 55 % 87 % 0 % 1032,6 hPa 0,0 l/m 0,9 km/h (0 Bft) 0,00 h 0,00 h 1,6 km/h (1 Bft)
14.03.2012 07:00 15,6 C 7,1 C 0,0 UV-I 0,0 C 55 % 88 % 0 % 1032,8 hPa 0,0 l/m 1,7 km/h (1 Bft) 0,00 h 0,00 h 3,5 km/h (1 Bft)
14.03.2012 08:00 15,6 C 7,1 C 0,0 UV-I 0,0 C 56 % 88 % 0 % 1032,3 hPa 0,0 l/m 5,8 km/h (2 Bft) 0,00 h 0,00 h 8,5 km/h (2 Bft)
14.03.2012 09:00 15,6 C 7,1 C 0,0 UV-I 0,3 C 56 % 87 % 9 % 1032,8 hPa 0,0 l/m 5,4 km/h (1 Bft) 0,00 h 0,00 h 7,2 km/h (2 Bft)
14.03.2012 10:00 15,8 C 7,5 C 0,0 UV-I 1,4 C 55 % 86 % 41 % 1032,8 hPa 0,0 l/m 4,3 km/h (1 Bft) 0,00 h 0,00 h 5,8 km/h (2 Bft)
14.03.2012 11:00 15,9 C 8,1 C 0,2 UV-I 2,1 C 55 % 84 % 61 % 1033,5 hPa 0,0 l/m 5,8 km/h (2 Bft) 0,00 h 0,00 h 7,2 km/h (2 Bft)
14.03.2012 12:00 16,2 C 8,6 C 0,3 UV-I 2,4 C 54 % 82 % 69 % 1033,5 hPa 0,0 l/m 5,8 km/h (2 Bft) 0,00 h 0,00 h 6,2 km/h (2 Bft)
14.03.2012 13:00 16,3 C 9,0 C 0,2 UV-I 2,1 C 53 % 80 % 60 % 1033,2 hPa 0,0 l/m 4,6 km/h (1 Bft) 0,00 h 0,00 h 6,4 km/h (2 Bft)
14.03.2012 14:00 16,3 C 9,3 C 0,2 UV-I 2,3 C 53 % 77 % 64 % 1032,8 hPa 0,0 l/m 4,0 km/h (1 Bft) 0,00 h 0,00 h 5,3 km/h (1 Bft)
14.03.2012 15:00 16,6 C 9,7 C 0,4 UV-I 2,5 C 53 % 75 % 70 % 1032,3 hPa 0,0 l/m 6,9 km/h (2 Bft) 0,23 h 0,00 h 8,5 km/h (2 Bft)
14.03.2012 16:00 17,6 C 10,3 C 0,3 UV-I 3,1 C 51 % 73 % 87 % 1032,8 hPa 0,0 l/m 6,0 km/h (2 Bft) 1,00 h 0,00 h 8,3 km/h (2 Bft)
14.03.2012 17:00 17,8 C 9,9 C 0,0 UV-I 1,0 C 50 % 75 % 30 % 1032,1 hPa 0,0 l/m 4,6 km/h (1 Bft) 0,13 h 0,00 h 6,3 km/h (2 Bft)
14.03.2012 18:00 17,1 C 8,7 C 0,0 UV-I 0,0 C 50 % 78 % 0 % 1031,4 hPa 0,0 l/m 2,6 km/h (1 Bft) 0,00 h 0,00 h 3,3 km/h (1 Bft)
14.03.2012 19:00 16,4 C 7,1 C 0,0 UV-I 0,0 C 51 % 82 % 0 % 1031,4 hPa 0,0 l/m 0,4 km/h (0 Bft) 0,00 h 0,00 h 0,5 km/h (0 Bft)
14.03.2012 20:00 15,9 C 6,4 C 0,0 UV-I 0,0 C 52 % 85 % 0 % 1031,5 hPa 0,0 l/m 1,3 km/h (1 Bft) 0,00 h 0,00 h 2,0 km/h (1 Bft)
14.03.2012 21:00 15,7 C 5,2 C 0,0 UV-I 0,0 C 52 % 87 % 0 % 1031,1 hPa 0,0 l/m 0,1 km/h (0 Bft) 0,00 h 0,00 h 0,0 km/h (0 Bft)
14.03.2012 22:00 15,5 C 3,8 C 0,0 UV-I 0,0 C 52 % 88 % 0 % 1031,0 hPa 0,0 l/m 0,0 km/h (0 Bft) 0,00 h 0,00 h 0,0 km/h (0 Bft)
14.03.2012 23:00 15,2 C 2,8 C 0,0 UV-I 0,0 C 52 % 90 % 0 % 1030,7 hPa 0,0 l/m 0,0 km/h (0 Bft) 0,00 h 0,00 h 0,0 km/h (0 Bft)
15.03.2012 00:00 15,2 C 2,0 C 0,0 UV-I 0,0 C 52 % 91 % 0 % 1030,5 hPa 0,0 l/m 0,0 km/h (0 Bft) 0,00 h 0,00 h 0,0 km/h (0 Bft)
15.03.2012 01:00 15,0 C 1,6 C 0,0 UV-I 0,0 C 51 % 92 % 0 % 1030,2 hPa 0,0 l/m 0,0 km/h (0 Bft) 0,00 h 0,00 h 0,0 km/h (0 Bft)
15.03.2012 02:00 14,9 C 2,5 C 0,0 UV-I 0,0 C 52 % 94 % 0 % 1029,8 hPa 0,0 l/m 0,7 km/h (0 Bft) 0,00 h 0,00 h 1,8 km/h (1 Bft)
15.03.2012 03:00 14,8 C 3,3 C 0,0 UV-I 0,0 C 52 % 94 % 0 % 1029,4 hPa 0,0 l/m 2,1 km/h (1 Bft) 0,00 h 0,00 h 3,5 km/h (1 Bft)
15.03.2012 04:00 14,8 C 3,2 C 0,0 UV-I 0,0 C 52 % 94 % 0 % 1029,0 hPa 0,0 l/m 2,6 km/h (1 Bft) 0,00 h 0,00 h 4,4 km/h (1 Bft)
15.03.2012 05:00 14,8 C 3,1 C 0,0 UV-I 0,0 C 52 % 94 % 0 % 1028,9 hPa 0,0 l/m 5,0 km/h (1 Bft) 0,00 h 0,00 h 7,4 km/h (2 Bft)
15.03.2012 06:00 14,7 C 2,9 C 0,0 UV-I 0,0 C 52 % 94 % 0 % 1028,7 hPa 0,0 l/m 4,3 km/h (1 Bft) 0,00 h 0,00 h 6,8 km/h (2 Bft)
15.03.2012 07:00 14,5 C 3,0 C 0,0 UV-I 0,0 C 51 % 94 % 0 % 1028,3 hPa 0,0 l/m 7,4 km/h (2 Bft) 0,00 h 0,00 h 11,1 km/h (2 Bft)
15.03.2012 08:00 14,4 C 4,1 C 0,0 UV-I 3,0 C 51 % 94 % 75 % 1028,1 hPa 0,0 l/m 9,6 km/h (2 Bft) 0,67 h 0,00 h 13,1 km/h (3 Bft)
15.03.2012 09:00 14,6 C 6,2 C 0,5 UV-I 5,4 C 51 % 92 % 100 % 1028,3 hPa 0,0 l/m 8,8 km/h (2 Bft) 1,00 h 0,00 h 11,6 km/h (2 Bft)
15.03.2012 10:00 14,8 C 8,7 C 1,6 UV-I 5,9 C 52 % 88 % 100 % 1028,3 hPa 0,0 l/m 8,6 km/h (2 Bft) 1,00 h 0,00 h 11,5 km/h (2 Bft)
15.03.2012 11:00 15,2 C 11,4 C 2,6 UV-I 6,4 C 52 % 81 % 100 % 1028,3 hPa 0,0 l/m 6,0 km/h (2 Bft) 1,00 h 0,00 h 9,5 km/h (2 Bft)
15.03.2012 12:00 16,0 C 13,7 C 3,4 UV-I 6,6 C 52 % 72 % 100 % 1028,6 hPa 0,0 l/m 4,9 km/h (1 Bft) 1,00 h 0,00 h 7,1 km/h (2 Bft)
15.03.2012 13:00 17,7 C 15,6 C 3,6 UV-I 6,6 C 49 % 66 % 100 % 1031,0 hPa 0,0 l/m 4,4 km/h (1 Bft) 1,00 h 0,00 h 6,6 km/h (2 Bft)
15.03.2012 14:00 19,6 C 17,4 C 3,5 UV-I 6,1 C 45 % 60 % 100 % 1029,9 hPa 0,0 l/m 4,3 km/h (1 Bft) 1,00 h 0,00 h 7,5 km/h (2 Bft)
15.03.2012 15:00 21,0 C 18,2 C 2,6 UV-I 5,0 C 42 % 57 % 100 % 1029,6 hPa 0,0 l/m 4,6 km/h (1 Bft) 1,00 h 0,00 h 6,9 km/h (2 Bft)
15.03.2012 16:00 21,4 C 18,4 C 1,0 UV-I 3,6 C 42 % 56 % 95 % 1028,1 hPa 0,0 l/m 5,2 km/h (1 Bft) 1,00 h 0,00 h 7,5 km/h (2 Bft)
15.03.2012 17:00 20,7 C 17,7 C 0,2 UV-I 1,6 C 43 % 58 % 45 % 1026,8 hPa 0,0 l/m 4,9 km/h (1 Bft) 0,43 h 0,00 h 6,9 km/h (2 Bft)
15.03.2012 18:00 19,8 C 15,8 C 0,0 UV-I 0,0 C 44 % 61 % 1 % 1025,7 hPa 0,0 l/m 0,8 km/h (0 Bft) 0,00 h 0,00 h 1,3 km/h (1 Bft)
15.03.2012 19:00 18,8 C 12,7 C 0,0 UV-I 0,0 C 46 % 68 % 0 % 1024,8 hPa 0,0 l/m 0,0 km/h (0 Bft) 0,00 h 0,00 h 0,0 km/h (0 Bft)
15.03.2012 20:00 18,1 C 10,3 C 0,0 UV-I 0,0 C 48 % 74 % 0 % 1024,4 hPa 0,0 l/m 0,0 km/h (0 Bft) 0,00 h 0,00 h 0,0 km/h (0 Bft)
15.03.2012 21:00 17,5 C 8,1 C 0,0 UV-I 0,0 C 50 % 80 % 0 % 1024,3 hPa 0,0 l/m 0,0 km/h (0 Bft) 0,00 h 0,00 h 0,0 km/h (0 Bft)
15.03.2012 22:00 17,1 C 7,4 C 0,0 UV-I 0,0 C 51 % 84 % 0 % 1024,1 hPa 0,0 l/m 0,1 km/h (0 Bft) 0,00 h 0,00 h 0,1 km/h (0 Bft)
15.03.2012 23:00 16,8 C 8,2 C 0,0 UV-I 0,0 C 51 % 83 % 0 % 1023,9 hPa 0,0 l/m 0,1 km/h (0 Bft) 0,00 h 0,00 h 0,1 km/h (0 Bft)
16.03.2012 00:00 16,5 C 6,8 C 0,0 UV-I 0,0 C 51 % 83 % 0 % 1023,7 hPa 0,0 l/m 0,0 km/h (0 Bft) 0,00 h 0,00 h 0,2 km/h (0 Bft)
16.03.2012 01:00 16,3 C 7,1 C 0,0 UV-I 0,0 C 52 % 87 % 0 % 1023,5 hPa 0,0 l/m 2,5 km/h (1 Bft) 0,00 h 0,00 h 4,4 km/h (1 Bft)
16.03.2012 02:00 16,2 C 7,5 C 0,0 UV-I 0,0 C 52 % 86 % 0 % 1023,0 hPa 0,0 l/m 6,3 km/h (2 Bft) 0,00 h 0,00 h 8,3 km/h (2 Bft)
16.03.2012 03:00 16,1 C 7,3 C 0,0 UV-I 0,0 C 52 % 85 % 0 % 1022,4 hPa 0,0 l/m 6,3 km/h (2 Bft) 0,00 h 0,00 h 8,0 km/h (2 Bft)
16.03.2012 04:00 16,0 C 7,0 C 0,0 UV-I 0,0 C 51 % 85 % 0 % 1021,8 hPa 0,0 l/m 4,3 km/h (1 Bft) 0,00 h 0,00 h 6,3 km/h (2 Bft)
16.03.2012 05:00 16,0 C 6,3 C 0,0 UV-I 0,0 C 51 % 86 % 0 % 1021,8 hPa 0,0 l/m 2,9 km/h (1 Bft) 0,00 h 0,00 h 4,6 km/h (1 Bft)
16.03.2012 06:00 15,8 C 5,8 C 0,0 UV-I 0,0 C 52 % 87 % 0 % 1021,7 hPa 0,0 l/m 2,7 km/h (1 Bft) 0,00 h 0,00 h 3,9 km/h (1 Bft)
16.03.2012 07:00 15,7 C 5,6 C 0,0 UV-I 0,1 C 51 % 88 % 2 % 1021,9 hPa 0,0 l/m 1,2 km/h (1 Bft) 0,00 h 0,00 h 1,9 km/h (1 Bft)
16.03.2012 08:00 15,7 C 7,0 C 0,0 UV-I 4,6 C 51 % 88 % 93 % 1022,0 hPa 0,0 l/m 1,3 km/h (1 Bft) 1,00 h 0,00 h 2,5 km/h (1 Bft)
16.03.2012 09:00 15,9 C 10,3 C 0,6 UV-I 7,0 C 52 % 83 % 100 % 1022,3 hPa 0,0 l/m 3,6 km/h (1 Bft) 1,00 h 0,00 h 6,1 km/h (2 Bft)
16.03.2012 10:00 16,1 C 12,2 C 1,7 UV-I 6,9 C 52 % 77 % 100 % 1022,6 hPa 0,0 l/m 5,4 km/h (1 Bft) 1,00 h 0,00 h 8,4 km/h (2 Bft)
16.03.2012 11:00 16,5 C 13,5 C 2,5 UV-I 7,1 C 53 % 74 % 100 % 1022,8 hPa 0,0 l/m 6,4 km/h (2 Bft) 1,00 h 0,00 h 9,0 km/h (2 Bft)
16.03.2012 12:00 17,4 C 13,6 C 3,0 UV-I 6,5 C 53 % 75 % 100 % 1023,0 hPa 0,0 l/m 7,9 km/h (2 Bft) 1,00 h 0,00 h 11,6 km/h (2 Bft)
16.03.2012 13:00 19,1 C 15,0 C 3,0 UV-I 7,4 C 51 % 74 % 100 % 1024,8 hPa 0,0 l/m 5,0 km/h (1 Bft) 1,00 h 0,00 h 7,1 km/h (2 Bft)
16.03.2012 14:00 20,5 C 17,6 C 2,8 UV-I 7,0 C 47 % 66 % 100 % 1023,7 hPa 0,0 l/m 3,2 km/h (1 Bft) 1,00 h 0,00 h 5,1 km/h (1 Bft)
16.03.2012 15:00 21,6 C 19,7 C 2,0 UV-I 5,8 C 44 % 57 % 100 % 1023,2 hPa 0,0 l/m 3,6 km/h (1 Bft) 1,00 h 0,00 h 4,0 km/h (1 Bft)
16.03.2012 16:00 22,0 C 20,8 C 0,9 UV-I 4,3 C 43 % 50 % 100 % 1021,9 hPa 0,0 l/m 1,5 km/h (1 Bft) 1,00 h 0,00 h 2,8 km/h (1 Bft)
16.03.2012 17:00 21,5 C 20,7 C 0,1 UV-I 1,7 C 44 % 49 % 49 % 1020,1 hPa 0,0 l/m 0,3 km/h (0 Bft) 0,60 h 0,00 h 0,6 km/h (0 Bft)
16.03.2012 18:00 20,7 C 18,6 C 0,0 UV-I 0,0 C 45 % 55 % 0 % 1018,9 hPa 0,0 l/m 0,0 km/h (0 Bft) 0,00 h 0,00 h 0,0 km/h (0 Bft)
16.03.2012 19:00 19,8 C 14,6 C 0,0 UV-I 0,0 C 47 % 64 % 0 % 1018,3 hPa 0,0 l/m 0,0 km/h (0 Bft) 0,00 h 0,00 h 0,0 km/h (0 Bft)
16.03.2012 20:00 19,1 C 11,9 C 0,0 UV-I 0,0 C 49 % 73 % 0 % 1017,8 hPa 0,0 l/m 0,0 km/h (0 Bft) 0,00 h 0,00 h 0,0 km/h (0 Bft)
16.03.2012 21:00 18,6 C 10,5 C 0,0 UV-I 0,0 C 50 % 79 % 0 % 1017,8 hPa 0,0 l/m 0,1 km/h (0 Bft) 0,00 h 0,00 h 0,0 km/h (0 Bft)
16.03.2012 22:00 18,3 C 11,4 C 0,0 UV-I 0,0 C 51 % 78 % 0 % 1017,8 hPa 0,0 l/m 0,1 km/h (0 Bft) 0,00 h 0,00 h 0,6 km/h (0 Bft)
16.03.2012 23:00 18,0 C 11,4 C 0,0 UV-I 0,0 C 51 % 74 % 0 % 1017,1 hPa 0,0 l/m 0,4 km/h (0 Bft) 0,00 h 0,00 h 0,8 km/h (0 Bft)
17.03.2012 00:00 17,9 C 10,9 C 0,0 UV-I 0,0 C 51 % 74 % 0 % 1016,6 hPa 0,0 l/m 1,2 km/h (1 Bft) 0,00 h 0,00 h 2,3 km/h (1 Bft)
17.03.2012 01:00 17,7 C 10,2 C 0,0 UV-I 0,0 C 51 % 77 % 0 % 1016,8 hPa 0,0 l/m 2,1 km/h (1 Bft) 0,00 h 0,00 h 3,9 km/h (1 Bft)
17.03.2012 02:00 17,5 C 8,8 C 0,0 UV-I 0,0 C 52 % 85 % 0 % 1017,7 hPa 0,0 l/m 5,0 km/h (1 Bft) 0,00 h 0,00 h 9,7 km/h (2 Bft)
17.03.2012 03:00 17,3 C 8,3 C 0,0 UV-I 0,0 C 53 % 90 % 0 % 1018,4 hPa 0,0 l/m 2,5 km/h (1 Bft) 0,00 h 0,00 h 4,5 km/h (1 Bft)
17.03.2012 04:00 17,2 C 8,3 C 0,0 UV-I 0,0 C 53 % 91 % 0 % 1018,1 hPa 0,0 l/m 0,5 km/h (0 Bft) 0,00 h 0,00 h 0,9 km/h (0 Bft)
17.03.2012 05:00 17,2 C 8,3 C 0,0 UV-I 0,0 C 54 % 91 % 0 % 1017,9 hPa 0,0 l/m 0,0 km/h (0 Bft) 0,00 h 0,00 h 0,1 km/h (0 Bft)
17.03.2012 06:00 17,2 C 8,4 C 0,0 UV-I 0,0 C 54 % 91 % 0 % 1018,0 hPa 0,0 l/m 0,4 km/h (0 Bft) 0,00 h 0,00 h 1,1 km/h (1 Bft)
17.03.2012 07:00 17,0 C 8,4 C 0,0 UV-I 0,0 C 54 % 91 % 0 % 1018,2 hPa 0,0 l/m 0,2 km/h (0 Bft) 0,00 h 0,00 h 0,0 km/h (0 Bft)
17.03.2012 08:00 17,0 C 8,8 C 0,0 UV-I 0,3 C 54 % 91 % 9 % 1018,1 hPa 0,0 l/m 0,8 km/h (0 Bft) 0,00 h 0,00 h 1,4 km/h (1 Bft)
17.03.2012 09:00 17,0 C 9,3 C 0,0 UV-I 0,6 C 54 % 91 % 17 % 1018,0 hPa 0,0 l/m 1,8 km/h (1 Bft) 0,00 h 0,00 h 3,6 km/h (1 Bft)
17.03.2012 10:00 17,1 C 9,7 C 0,0 UV-I 0,9 C 55 % 91 % 26 % 1018,1 hPa 0,0 l/m 2,6 km/h (1 Bft) 0,00 h 0,00 h 3,8 km/h (1 Bft)
17.03.2012 11:00 17,2 C 10,5 C 0,1 UV-I 1,9 C 55 % 88 % 55 % 1018,0 hPa 0,0 l/m 1,5 km/h (1 Bft) 0,00 h 0,00 h 2,4 km/h (1 Bft)
17.03.2012 12:00 17,6 C 11,2 C 0,1 UV-I 1,7 C 53 % 85 % 48 % 1017,9 hPa 0,0 l/m 2,4 km/h (1 Bft) 0,00 h 0,00 h 4,2 km/h (1 Bft)
17.03.2012 13:00 17,6 C 11,4 C 0,0 UV-I 1,0 C 53 % 84 % 30 % 1017,4 hPa 0,0 l/m 2,3 km/h (1 Bft) 0,00 h 0,00 h 4,0 km/h (1 Bft)
17.03.2012 14:00 17,5 C 11,3 C 0,0 UV-I 0,5 C 54 % 84 % 14 % 1016,8 hPa 0,0 l/m 3,3 km/h (1 Bft) 0,00 h 0,00 h 5,1 km/h (1 Bft)
17.03.2012 15:00 17,3 C 10,8 C 0,0 UV-I 0,1 C 54 % 87 % 2 % 1016,5 hPa 0,0 l/m 2,1 km/h (1 Bft) 0,00 h 0,00 h 3,7 km/h (1 Bft)
17.03.2012 16:00 17,3 C 11,1 C 0,0 UV-I 0,8 C 55 % 87 % 22 % 1016,4 hPa 0,0 l/m 3,0 km/h (1 Bft) 0,00 h 0,00 h 6,0 km/h (2 Bft)
17.03.2012 17:00 17,4 C 11,6 C 0,0 UV-I 0,0 C 54 % 83 % 1 % 1015,7 hPa 0,0 l/m 4,8 km/h (1 Bft) 0,00 h 0,00 h 6,5 km/h (2 Bft)
17.03.2012 18:00 17,2 C 11,6 C 0,0 UV-I 0,0 C 54 % 82 % 0 % 1015,7 hPa 0,0 l/m 3,4 km/h (1 Bft) 0,00 h 0,00 h 5,1 km/h (1 Bft)
17.03.2012 19:00 17,1 C 11,6 C 0,0 UV-I 0,0 C 55 % 82 % 0 % 1015,7 hPa 0,0 l/m 3,8 km/h (1 Bft) 0,00 h 0,00 h 6,3 km/h (2 Bft)
17.03.2012 20:00 17,1 C 11,6 C 0,0 UV-I 0,0 C 54 % 79 % 0 % 1015,5 hPa 0,0 l/m 6,8 km/h (2 Bft) 0,00 h 0,00 h 10,8 km/h (2 Bft)
17.03.2012 21:00 17,0 C 11,2 C 0,0 UV-I 0,0 C 54 % 80 % 0 % 1015,5 hPa 0,0 l/m 2,5 km/h (1 Bft) 0,00 h 0,00 h 3,9 km/h (1 Bft)
17.03.2012 22:00 16,8 C 10,8 C 0,0 UV-I 0,0 C 54 % 82 % 0 % 1015,1 hPa 0,0 l/m 2,6 km/h (1 Bft) 0,00 h 0,00 h 3,4 km/h (1 Bft)
17.03.2012 23:00 16,8 C 10,6 C 0,0 UV-I 0,0 C 54 % 83 % 0 % 1015,0 hPa 0,0 l/m 2,0 km/h (1 Bft) 0,00 h 0,00 h 3,8 km/h (1 Bft)
18.03.2012 00:00 16,8 C 10,3 C 0,0 UV-I 0,0 C 54 % 84 % 0 % 1014,5 hPa 0,0 l/m 1,1 km/h (0 Bft) 0,00 h 0,00 h 2,3 km/h (1 Bft)
18.03.2012 01:00 16,8 C 9,9 C 0,0 UV-I 0,0 C 55 % 84 % 0 % 1013,9 hPa 0,0 l/m 1,6 km/h (1 Bft) 0,00 h 0,00 h 3,1 km/h (1 Bft)
18.03.2012 02:00 16,8 C 10,0 C 0,0 UV-I 0,0 C 55 % 85 % 0 % 1013,5 hPa 0,0 l/m 3,7 km/h (1 Bft) 0,00 h 0,07 h 5,9 km/h (2 Bft)
18.03.2012 03:00 16,8 C 9,9 C 0,0 UV-I 0,0 C 55 % 85 % 0 % 1012,8 hPa 0,0 l/m 5,1 km/h (1 Bft) 0,00 h 0,00 h 8,6 km/h (2 Bft)
18.03.2012 04:00 16,7 C 10,2 C 0,0 UV-I 0,0 C 55 % 85 % 0 % 1012,3 hPa 0,0 l/m 5,5 km/h (1 Bft) 0,00 h 0,00 h 7,7 km/h (2 Bft)
18.03.2012 05:00 16,7 C 10,4 C 0,0 UV-I 0,0 C 55 % 85 % 0 % 1012,2 hPa 0,2 l/m 2,8 km/h (1 Bft) 0,00 h 0,60 h 4,5 km/h (1 Bft)
18.03.2012 06:00 16,7 C 9,9 C 0,0 UV-I 0,0 C 56 % 88 % 0 % 1012,0 hPa 0,1 l/m 0,7 km/h (0 Bft) 0,00 h 0,23 h 1,5 km/h (1 Bft)
18.03.2012 07:00 16,7 C 9,4 C 0,0 UV-I 0,0 C 56 % 91 % 0 % 1012,8 hPa 0,6 l/m 4,9 km/h (1 Bft) 0,00 h 0,27 h 7,7 km/h (2 Bft)
18.03.2012 08:00 16,6 C 8,2 C 0,0 UV-I 0,0 C 56 % 92 % 0 % 1013,6 hPa 0,1 l/m 5,8 km/h (2 Bft) 0,00 h 0,00 h 8,8 km/h (2 Bft)
18.03.2012 09:00 16,5 C 8,2 C 0,0 UV-I 0,1 C 55 % 91 % 3 % 1014,4 hPa 0,0 l/m 6,0 km/h (2 Bft) 0,00 h 0,00 h 8,1 km/h (2 Bft)
18.03.2012 10:00 16,6 C 8,7 C 0,0 UV-I 0,8 C 54 % 89 % 23 % 1015,2 hPa 0,0 l/m 6,9 km/h (2 Bft) 0,00 h 0,00 h 9,0 km/h (2 Bft)
18.03.2012 11:00 16,8 C 9,2 C 0,1 UV-I 0,8 C 52 % 85 % 23 % 1015,5 hPa 0,0 l/m 9,5 km/h (2 Bft) 0,00 h 0,00 h 16,0 km/h (3 Bft)
18.03.2012 12:00 16,8 C 9,4 C 0,2 UV-I 0,8 C 51 % 82 % 22 % 1015,9 hPa 0,0 l/m 8,5 km/h (2 Bft) 0,00 h 0,00 h 11,7 km/h (2 Bft)
18.03.2012 13:00 16,8 C 9,5 C 0,0 UV-I 0,4 C 50 % 79 % 12 % 1016,2 hPa 0,0 l/m 8,4 km/h (2 Bft) 0,00 h 0,00 h 12,5 km/h (3 Bft)
18.03.2012 14:00 16,6 C 9,8 C 0,0 UV-I 0,7 C 50 % 78 % 21 % 1016,2 hPa 0,0 l/m 5,8 km/h (2 Bft) 0,00 h 0,00 h 7,1 km/h (2 Bft)
18.03.2012 15:00 16,7 C 10,4 C 0,0 UV-I 0,9 C 50 % 77 % 25 % 1016,2 hPa 0,0 l/m 3,5 km/h (1 Bft) 0,00 h 0,00 h 5,0 km/h (1 Bft)
18.03.2012 16:00 16,9 C 10,9 C 0,0 UV-I 1,1 C 50 % 75 % 32 % 1016,8 hPa 0,0 l/m 2,9 km/h (1 Bft) 0,00 h 0,00 h 4,7 km/h (1 Bft)
18.03.2012 17:00 16,9 C 10,7 C 0,0 UV-I 0,1 C 50 % 74 % 3 % 1017,1 hPa 0,0 l/m 1,7 km/h (1 Bft) 0,00 h 0,00 h 2,4 km/h (1 Bft)
18.03.2012 18:00 16,8 C 10,2 C 0,0 UV-I 0,0 C 51 % 76 % 0 % 1017,8 hPa 0,0 l/m 0,9 km/h (0 Bft) 0,00 h 0,00 h 1,7 km/h (1 Bft)
18.03.2012 19:00 16,7 C 9,6 C 0,0 UV-I 0,0 C 51 % 76 % 0 % 1018,9 hPa 0,0 l/m 1,3 km/h (1 Bft) 0,00 h 0,07 h 2,2 km/h (1 Bft)
18.03.2012 20:00 16,5 C 8,8 C 0,0 UV-I 0,0 C 51 % 78 % 0 % 1020,2 hPa 0,0 l/m 6,4 km/h (2 Bft) 0,00 h 0,00 h 9,8 km/h (2 Bft)
18.03.2012 21:00 16,4 C 6,7 C 0,0 UV-I 0,0 C 52 % 84 % 0 % 1021,5 hPa 0,0 l/m 1,5 km/h (1 Bft) 0,00 h 0,00 h 1,1 km/h (1 Bft)
18.03.2012 22:00 16,2 C 5,1 C 0,0 UV-I 0,0 C 52 % 86 % 0 % 1021,9 hPa 0,0 l/m 0,0 km/h (0 Bft) 0,00 h 0,00 h 0,0 km/h (0 Bft)
18.03.2012 23:00 16,0 C 4,4 C 0,0 UV-I 0,0 C 52 % 90 % 0 % 1022,9 hPa 0,0 l/m 0,6 km/h (0 Bft) 0,00 h 0,00 h 2,1 km/h (1 Bft)
Min-Datum _ 15.03.12 15.03.12 12.03.12 12.03.12 15.03.12 16.03.12 12.03.12 18.03.12 - 12.03.12 - - 12.03.12
_ Min-Zeit 07:38 01:28 00:00 00:00 15:54 16:54 00:00 06:46 - 00:08 - - 00:00
Minimum _ 14,4 C 1,5 C 0,0 UV-I 0,0 C 41 % 48 % 0 % 1011,8 hPa - 0,0 km/h (0 Bft) - - 0,0 km/h (0 Bft)
Max-Datum _ 16.03.12 16.03.12 15.03.12 16.03.12 13.03.12 12.03.12 14.03.12 13.03.12 18.03.12 15.03.12 14.03.12 12.03.12 18.03.12
_ Max-Zeit 16:04 16:52 13:34 09:12 00:46 09:42 15:52 12:26 07:32 08:12 15:46 04:38 11:42
Maximum _ 22,1 C 21,2 C 3,8 UV-I 7,9 C 59 % 98 % 100 % 1035,6 hPa 0,6 l/m 12,4 km/h
SO (3 Bft)
0,03 h 0,03 h 30,1 km/h
SW (5 Bft)
Durchschnitt _ 16,6 C 9,1 C 0,2 UV-I 0,9 C 53 % 84 % 19 % 1026,1 hPa #1,1 l/m 3,0 km/h (1 Bft) #20:04 h #1:16 h 4,4 km/h (1 Bft)
© 2012 W. Hausmann